Flag for Brazil

Past Weather in Petrópolis, Rio de Janeiro, Brazil — Yesterday and Last 2 Weeks

Now
72 °F

Partly sunny.


Feels Like: 76 °F
Forecast: 64 / 56 °F
Wind: 9 mph from Southeast

Location: Galeao

Current Time: Jul 10, 2020 at 4:31:17 pm

Latest Report: Jul 10, 2020 at 4:00 pm


Visibility: N/A

Pressure: 30.12 "Hg (27.33 "Hg at 838m altitude)

Humidity: 61%

Dew Point: 57 °F

Location of PetrópolisLocation

Past Weather in Petrópolis — Graph

°F

Petrópolis Temperature Yesterday

Maximum temperature yesterday: 82 °F (at 10:00 am)
Minimum temperature yesterday: 64 °F (at 2:00 am)
Average temperature yesterday: 72 °F

High & Low Weather Summary for the Past Weeks

 TemperatureHumidityPressure
High90 °F (Jul 8, 2:00 pm)94% (Jun 27, 5:00 am)30.27 "Hg (Jun 27, 5:00 am)
Low61 °F (Jun 30, 5:00 am)27% (Jul 8, 12:00 pm)29.71 "Hg (Jul 1, 1:00 pm)
Average72 °F71%30.01 "Hg
* Reported Jun 25 3:00 pm — Jul 10 3:00 pm, Petrópolis. Weather by CustomWeather, © 2020

Note: Actual official high and low records may vary slightly from our data, if they occured in-between our weather recording intervals... More about our weather records

Petrópolis Weather History for the Previous 24 Hours

Scroll right to see more
 ConditionsComfort  
Time TempWeatherWind HumidityBarometerVisibility
3:00 pm
Fri, Jul 10
73 °FPartly sunny.10 mph61%30.12 "HgN/A
2:00 pm73 °FPartly sunny.12 mph57%30.15 "HgN/A
1:00 pm73 °FPartly sunny.8 mph61%30.15 "HgN/A
12:00 pm73 °FPartly sunny.6 mph61%30.18 "HgN/A
11:00 am70 °FPartly sunny.6 mph73%30.21 "HgN/A
10:00 am70 °FPartly sunny.5 mph73%30.21 "Hg6 mi
9:00 am68 °FPartly sunny.6 mph78%30.21 "Hg5 mi
8:00 am68 °FPartly sunny.7 mph83%30.18 "Hg5 mi
7:00 am66 °FPartly sunny.2 mph83%30.18 "HgN/A
6:00 am66 °FPassing clouds.2 mph78%30.18 "HgN/A
5:00 am64 °FPassing clouds.3 mph83%30.15 "HgN/A
4:00 am64 °FPassing clouds.2 mph83%30.15 "HgN/A
3:00 am64 °FPassing clouds.2 mph83%30.15 "HgN/A
2:00 am68 °FPassing clouds.7 mph78%30.15 "HgN/A
1:00 am68 °FPassing clouds.5 mph78%30.18 "HgN/A
12:00 am68 °FPassing clouds.5 mph78%30.18 "HgN/A
11:00 pm
Thu, Jul 9
70 °FPassing clouds.5 mph73%30.18 "HgN/A
10:00 pm70 °FPassing clouds.8 mph73%30.15 "HgN/A
9:00 pm72 °FPassing clouds.7 mph69%30.15 "HgN/A
8:00 pm72 °FPassing clouds.9 mph69%30.12 "HgN/A
7:00 pm72 °FPassing clouds.7 mph69%30.12 "HgN/A
6:00 pm72 °FPassing clouds.7 mph69%30.12 "HgN/A
5:00 pm72 °FMostly cloudy.12 mph69%30.12 "HgN/A
4:00 pm73 °FPartly sunny.15 mph65%30.09 "HgN/A
Weather by CustomWeather, © 2020

See weather overview